Location: Kailua
(21.4020°N, 157.7390°W)
Time: 02:58:41
(UTC-10:00)

Daily predictions for brighter satellites

Satellite Brightness Start Highest point End
(mag) Time Altitude Azimuth Time Altitude Azimuth Time Altitude Azimuth
ATLAS 2AS CENTAUR R/B 4.5 01:40:26 10° N 01:46:47 27° NE 01:48:17 25° ENE
Cosmos 2297 Rocket 4.2 02:20:32 23° N 02:20:32 23° N 02:22:36 10° NNE
Cosmos 2333 Rocket 4.2 02:12:25 10° N 02:14:48 23° NNE 02:14:48 23° NNE
CZ-3B DEB 4.0 02:19:39 78° SSW 02:20:55 87° ESE 02:35:58 10° NE
Cosmos 2219 Rocket 4.3 02:26:02 10° NNW 02:27:41 20° N 02:27:41 20° N
Lacrosse 4 Rocket 4.4 02:41:33 13° NE 02:41:33 13° NE 02:42:03 10° NE
Cosmos 2237 Rocket 3.5 02:43:22 10° N 02:46:54 36° NNE 02:46:54 36° NNE
Cosmos 2227 Rocket 4.3 02:57:26 16° NNW 02:57:26 16° NNW 02:59:03 10° NNW
SL-16 R/B 2.9 02:56:13 61° NE 02:56:13 61° NE 03:01:48 10° N
Cosmos 2263 Rocket 4.4 03:15:16 14° SE 03:17:37 18° E 03:21:11 10° ENE
Resurs 1-4 Rocket 3.5 03:13:40 10° N 03:16:33 29° NNW 03:16:33 29° NNW
BREEZE-M DEB (TANK) 4.5 03:22:07 32° SE 03:23:20 36° ESE 03:35:11 10° NE
OAO 3 Rocket 4.0 03:24:33 51° NNE 03:24:33 51° NNE 03:28:24 10° NE
ATLAS 3B CENTAUR R/B 3.6 03:10:14 10° WNW 03:25:17 56° N 03:30:38 10° ENE
SEDSat Delta rocket 4.4 03:27:09 48° SE 03:27:09 48° SE 03:33:25 10° ENE
ADEOS II 3.8 03:24:06 10° NE 03:28:30 27° E 03:30:59 19° SE
Cosmos 1816 Rocket 4.4 03:31:24 72° W 03:31:26 73° W 03:37:46 10° N
Intelsat 5-2 Rocket 4.0 03:33:43 42° E 03:33:43 42° E 03:38:05 10° E
ADEOS Rocket 4.3 03:26:46 10° N 03:33:29 35° WNW 03:33:33 35° WNW
CZ-2D R/B 3.7 03:29:30 10° NNW 03:32:06 23° NW 03:32:06 23° NW
Cosmos 2034 Rocket 3.9 03:28:19 10° N 03:34:39 71° W 03:34:51 70° WSW
Cosmos 1570 Rocket 4.2 03:31:24 10° NNW 03:35:47 60° NNW 03:35:47 60° NNW
ATLAS 2AS CENTAUR R/B 3.6 03:30:42 10° NW 03:35:35 36° WNW 03:35:35 36° WNW
Tsikada Rocket 4.3 03:40:05 48° WNW 03:40:05 48° WNW 03:45:49 10° N
GPS 2-17 Rocket1 3.7 03:42:39 44° ESE 03:42:39 44° ESE 03:45:41 10° E
ARIANE 5 R/B 4.2 03:37:39 10° NNW 03:39:52 20° NW 03:39:52 20° NW
Cosmos 1867 4.3 03:42:40 37° SSE 03:44:04 45° ESE 03:49:14 10° NE
USA 215 3.8 03:42:15 10° NE 03:48:30 48° SE 03:51:16 31° S
Meteosat 1 Rocket2 3.5 03:49:59 47° NNW 03:49:59 47° NNW 03:53:33 10° ENE
Cosmos 1933 Rocket 3.5 03:52:28 79° NW 03:52:28 79° NW 03:56:45 10° N
MOS 1 Rocket 3.9 03:47:53 10° N 03:52:55 49° WNW 03:52:55 49° WNW
ISS -1.1 03:56:49 10° N 03:59:20 20° NE 04:01:52 10° E
Cosmos 1486 Rocket 4.2 04:02:10 47° W 04:02:27 48° WNW 04:07:28 10° N
GPS 2-15 Rocket1 3.5 04:06:35 43° S 04:06:35 43° S 04:10:37 10° ESE
Hubble Space Telescope 1.7 04:19:10 31° S 04:19:10 31° S 04:22:02 10° SE
Atlas Centaur 2 3.8 04:13:41 24° SSW 04:18:15 42° SSE 04:26:01 10° E
FUSE 3.8 04:18:32 28° W 04:21:23 82° SSW 04:26:42 10° ESE
Okean O Rocket 1.5 04:18:45 10° N 04:23:04 76° WNW 04:25:03 31° SSW
Cosmos 1933 3.2 04:20:58 10° N 04:25:03 77° W 04:27:52 19° S
GP-B 3.0 04:21:34 10° N 04:26:01 83° W 04:29:11 19° S
Cosmos 2142 Rocket 4.5 04:24:29 10° N 04:30:51 74° W 04:37:07 10° S
Cosmos 468 Rocket 4.0 04:26:34 10° NNW 04:31:35 55° WSW 04:36:33 10° S
ATLAS 5 CENTAUR R/B 2.3 04:30:24 30° WSW 04:31:53 40° WNW 04:36:21 10° N
SL-16 R/B 2.6 04:27:50 10° NW 04:33:02 38° WSW 04:38:13 10° S
Meteor 2-3 Rocket 3.7 04:28:47 18° SSW 04:33:03 71° W 04:38:43 10° N
Cosmos 375 4.2 04:29:22 10° NNW 04:33:39 77° WSW 04:37:31 10° SSE
Cosmos 1400 Rocket 3.7 04:35:20 28° W 04:35:39 28° W 04:39:03 10° NNW
CZ-4B R/B 3.1 04:30:32 10° N 04:35:51 74° WNW 04:40:33 14° SSW
Meteor PRIRODA 4.2 04:34:15 10° NNE 04:37:50 55° E 04:41:25 10° S
Cosmos 1869 Rocket 3.6 04:34:10 11° S 04:38:28 85° E 04:42:56 10° N
Cosmos 1892 3.0 04:37:28 30° SW 04:38:51 45° W 04:42:30 10° N
SL-16 R/B 4.4 04:41:18 11° WNW 04:41:18 11° WNW 04:41:43 10° WNW
VEP-3 2.8 04:33:08 11° W 04:39:42 52° SSW 04:45:24 10° SE
Cosmos 1634 Rocket 4.2 04:36:00 10° NNW 04:41:53 49° W 04:47:46 10° SSW
Skynet4D Del rocket 4.3 04:37:53 22° SW 04:42:45 62° SSE 04:49:05 10° E
SWIFT 4.5 04:41:30 11° S 04:43:17 14° SSE 04:45:35 10° SE
Cosmos 2279 Rocket 4.0 04:38:19 10° N 04:44:32 90° ENE 04:50:47 10° S
CZ-4B DEB 4.4 04:44:51 10° N 04:50:06 50° WNW 04:54:59 12° SSW
CZ-3A R/B 4.5 04:43:29 10° W 04:50:14 81° N 06:37:46 10° ESE
Meteor 1-31 Rocket 3.0 04:49:48 10° NNE 04:53:42 72° E 04:57:34 10° S
Cosmos 1814 Rocket 4.3 04:49:01 10° NNW 04:54:08 47° WSW 04:59:14 10° S
Okean-O 3.4 04:50:08 10° NNE 04:54:27 53° E 04:58:46 10° S
Cosmos 1763 Rocket 3.4 04:50:10 10° NNW 04:55:18 65° WSW 05:00:21 10° S
Landsat 4 4.5 04:56:03 10° SSW 04:59:24 31° W 05:02:48 10° NW
IRAS Rocket 4.2 04:53:51 10° NNE 04:59:26 89° WNW 05:04:57 10° SSW
EO 1 Del DPAF 3.7 04:56:57 10° SSE 05:00:44 65° ENE 05:04:32 10° N
Cosmos 1943 4.5 04:55:39 10° N 05:01:00 44° ENE 05:06:21 10° SE
Cosmos 2263 Rocket 2.8 04:57:01 15° SW 05:01:08 37° WNW 05:06:15 10° N
Cosmos 1092 Rocket 4.2 05:00:10 10° S 05:06:27 81° E 05:12:47 10° N
ADEOS II 3.3 05:03:54 10° NNW 05:07:58 23° WNW 05:11:56 10° WSW
GPS 2-04 Rocket1 3.5 05:07:30 10° NW 05:11:39 58° NNE 05:15:54 10° ESE
Abrixas rocket 3.9 05:09:52 11° W 05:12:19 21° NW 05:14:55 10° N
Cosmos 371 Rocket 3.8 05:08:02 10° NW 05:12:23 35° W 05:16:44 10° SSW
SEDSat Delta rocket 4.4 05:07:16 10° W 05:13:42 63° NNW 05:20:27 10° ENE
Cosmos 2221 Rocket 3.6 05:11:12 10° N 05:15:44 83° W 05:20:13 10° S
Okean 1-7 3.0 05:11:36 10° N 05:15:51 90° E 05:20:06 10° S
CZ-3 R/B 3.1 04:50:13 10° WNW 05:18:16 74° N 05:24:33 10° E
Cosmos 1825 2.2 05:18:55 10° SSW 05:22:38 58° W 05:26:22 10° N
GPS 2-17 Rocket1 3.1 05:20:25 10° W 05:24:39 53° S 05:28:52 10° ESE
NOSS 3-4 (A) 4.3 05:22:39 10° NW 05:29:25 40° WSW 05:36:30 10° S
NOSS 3-4 (C) 4.3 05:22:44 10° NW 05:29:32 40° WSW 05:36:38 10° S
